User: anonymous   Login
Location: Unspecified
(0.0000°N, 0.0000°E)
Time: 22:20:13
(UTC+00:00)
Language:

N. Korean satellite - Orbit

View from above orbital plane
View from above orbital plane
View from above satellite
View from above satellite

Ground track
Ground track

The orbit data is extracted from the following two-line orbital elements,

1 39026U 12072A   17267.90328547 +.00001673 +00000-0 +66761-4 0  9990
2 39026 097.2211 282.3419 0040147 181.3165 178.7974 15.25813604265139
Epoch (UTC): 24 September 2017 21:40:43
Eccentricity: 0.0040147
inclination: 97.2211°
perigee height: 461 km
apogee height: 516 km
right ascension of ascending node: 282.3419°
argument of perigee: 181.3165°
revolutions per day: 15.25813604
mean anomaly at epoch: 178.7974°
orbit number at epoch: 26513

The dashed part of the orbit path shows where the satellite is in the earth's shadow,  

DLR